Location: Góry Miechowskie
(50.3599°N, 20.1803°E)
Time: 21:55:57
(UTC+00:00)

Tiros 1 despin weight - Pass Details

Date: 20 September 2024
Orbit: 572 x 614 km, 48.2° (Epoch: 12 October)

Event Time Altitude Azimuth Distance (km) Brightness Sun altitude
Rises 23:42:05 0° 220° (SW) 2,839 - -36.9°
Reaches altitude 10° 23:44:35 10° 209° (SSW) 1,947 - -36.8°
Maximum altitude 23:48:25 28° 150° (SSE) 1,143 - -36.5°
Drops below altitude 10° 23:52:18 10° 91° (E) 1,972 - -36.3°
Exits shadow 23:53:40 - 84° (E) 2,452 ? -36.2°
Sets 23:54:51 0° 80° (E) 2,883 ? -36.1°
